N5CNB-2 Weather Reports


time (UTC)temp
C
wind
direction
speed
KPH
gust
KPH
rain 1hr
cm
rain 24hr
cm
rain mn
cm
humidity
%
barometer
mb
20260504081555 -17 0.0 0.0 0.00 0.00 0.00 1016.0
20260504044557 -17 0.0 0.0 0.00 0.00 0.00 1018.6
20260504043054 16 171 0.0 3.2 0.00 0.00 0.00 73 1018.6
20260504041554 17 0 0.0 1.6 0.00 0.00 0.00 72 1018.5
20260504040055 17 0 0.0 1.6 0.00 0.00 0.00 71 1018.5
20260504034614 17 171 1.6 6.4 0.00 0.00 0.00 70 1018.8
20260504033050 18 0 0.0 3.2 0.00 0.00 0.00 69 1018.7
20260504031555 18 0 0.0 8.0 0.00 0.00 0.00 67 1018.3
20260504030053 18 172 1.6 11.3 0.00 0.00 0.00 66 1018.5
20260504024553 19 175 3.2 11.3 0.00 0.00 0.00 65 1018.2
20260504023055 19 184 3.2 12.9 0.00 0.00 0.00 66 1017.9
20260504021557 19 185 0.0 4.8 0.00 0.00 0.00 67 1017.8
20260504020103 19 183 1.6 4.8 0.00 0.00 0.00 67 1017.9
20260504014619 19 168 0.0 3.2 0.00 0.00 0.00 67 1017.8
20260504013055 19 0 0.0 4.8 0.00 0.00 0.00 66 1017.6
20260504011602 21 0 0.0 0.0 0.00 0.00 0.00 63 1017.5
20260504010059 22 0 0.0 0.0 0.00 0.00 0.00 56 1017.3
20260504004552 23 0 0.0 1.6 0.00 0.00 0.00 49 1017.4
20260504003059 24 0 0.0 3.2 0.00 0.00 0.00 47 1017.6
20260504001556 23 169 0.0 3.2 0.00 0.00 0.00 48 1017.6
20260504000057 24 0 1.6 8.0 0.00 0.00 0.00 46 1017.8
20260503234553 25 168 1.6 4.8 0.00 0.00 0.00 44 1017.7
20260503233053 25 0 1.6 9.7 0.00 0.00 0.00 43 1017.7
20260503231551 25 92 1.6 14.5 0.00 0.00 0.00 44 1017.9
20260503230051 25 173 6.4 14.5 0.00 0.00 0.00 39 1018.0
20260503224549 25 191 4.8 14.5 0.00 0.00 0.00 40 1018.2
20260503223052 26 197 4.8 16.1 0.00 0.00 0.00 39 1018.4
20260503221550 26 188 1.6 17.7 0.00 0.00 0.00 40 1018.6
20260503220054 25 77 6.4 16.1 0.00 0.00 0.00 38 1018.7
20260503214548 25 169 8.0 19.3 0.00 0.00 0.00 43 1018.9
20260503213107 26 194 4.8 22.5 0.00 0.00 0.00 39 1019.2
20260503211556 25 185 4.8 12.9 0.00 0.00 0.00 43 1019.4
20260503210056 25 80 3.2 16.1 0.00 0.00 0.00 40 1019.7
20260503204555 26 178 0.0 24.1 0.00 0.00 0.00 44 1019.8
20260503203101 24 96 3.2 17.7 0.00 0.00 0.00 47 1020.2
20260503201549 25 119 4.8 17.7 0.00 0.00 0.00 43 1020.3
20260503200055 25 93 9.7 20.9 0.00 0.00 0.00 44 1020.6
20260503194553 25 155 9.7 19.3 0.00 0.00 0.00 42 1020.8
20260503193107 25 108 8.0 16.1 0.00 0.00 0.00 44 1021.0
20260503191601 26 192 3.2 14.5 0.00 0.00 0.00 43 1021.1
20260503190056 25 188 3.2 17.7 0.00 0.00 0.00 43 1021.3
20260503184604 25 68 3.2 12.9 0.00 0.00 0.00 45 1021.5
20260503183104 25 184 3.2 14.5 0.00 0.00 0.00 46 1021.7
20260503181608 25 175 8.0 16.1 0.00 0.00 0.00 43 1022.0
20260503180053 25 180 9.7 19.3 0.00 0.00 0.00 42 1022.0
20260503174554 25 180 3.2 14.5 0.00 0.00 0.00 43 1022.3
20260503173100 25 189 4.8 12.9 0.00 0.00 0.00 49 1022.6
20260503171556 24 163 1.6 14.5 0.00 0.00 0.00 46 1022.7